Weather History for Lewistown, MT

Change the Weather History Date:

Sunday, March 9, 2014

  Actual Average Record
Temperature  
Mean Temperature 50 °F 31 °F  
Max Temperature 57 °F 42 °F 72 °F (1902)
Min Temperature 43 °F 20 °F -22 °F (1932)
Degree Days  
Heating Degree Days 15 34  
Month to date heating degree days 359 319  
Since 1 July heating degree days 6415 6123  
Cooling Degree Days 0 0  
Month to date cooling degree days 0 0  
Year to date cooling degree days 0 0  
Moisture  
Dew Point 32 °F    
Average Humidity 54    
Maximum Humidity 65    
Minimum Humidity 42    
Precipitation  
Precipitation 0.00 in 0.02 in 0.45 in (1935)
Month to date precipitation 0.04 0.20  
Year to date precipitation 1.32 1.21  
Snow  
Snow 0.00 in - - ()
Snow Depth 0.00 in    
Sea Level Pressure  
Sea Level Pressure 29.79 in    
Wind  
Wind Speed 22 mph (SW)    
Max Wind Speed 36 mph    
Max Gust Speed 44 mph    
Visibility 10 miles    
Events      
T = Trace of Precipitation, MM = Missing Value Source: NWS Daily Summary

Daily Weather History Graph

Daily Weather History Graph

Search for Another Location

Airport:

Trip Planner

Search our weather history database for the weather conditions in past years. The results will help you decide how hot, cold, wet, or windy it might be!

Date:

Astronomy

Mar. 09, 2014 Rise Set
Actual Time 7:42 AM MDT 7:15 PM MDT
Civil Twilight 7:12 AM MDT 7:45 PM MDT
Nautical Twilight 6:36 AM MDT 8:20 PM MDT
Astronomical Twilight 6:01 AM MDT 8:56 PM MDT
Moon 12:54 PM MDT (3/9) 3:27 AM MDT (3/9)
Length of Visible Light 12h 33m
Length of Day
11h 32m
First Quarter, 61% of the Moon is Illuminated
Mar 9
First Quarter
Mar 16
Full
Mar 23
Last Quarter
Mar 30
New
Apr 7
First Quarter

Hourly Weather History & Observations

Time (MDT) Temp. Windchill Dew Point Humidity Pressure Visibility Wind Dir Wind Speed Gust Speed Precip Events Conditions
12:54 AM 48.0 °F - 27.0 °F 44% 29.81 in 10.0 mi WSW 27.6 mph 35.7 mph N/A   Partly Cloudy
1:54 AM 46.9 °F - 27.0 °F 46% 29.80 in 10.0 mi SW 27.6 mph 35.7 mph N/A   Clear
3:54 AM 48.0 °F - 27.0 °F 44% 29.80 in 10.0 mi SW 27.6 mph - N/A   Clear
4:54 AM 46.9 °F - 28.0 °F 48% 29.79 in 10.0 mi WSW 24.2 mph 32.2 mph N/A   Clear
5:54 AM 46.9 °F - 28.9 °F 50% 29.80 in 10.0 mi SW 23.0 mph - N/A   Clear
6:54 AM 46.0 °F 43.1 °F 27.0 °F 47% 29.78 in 10.0 mi South 5.8 mph - N/A   Clear
7:54 AM 48.0 °F - 26.1 °F 42% 29.75 in 10.0 mi SW 32.2 mph 41.4 mph N/A   Clear
8:54 AM 46.9 °F - 28.0 °F 48% 29.76 in 10.0 mi WSW 27.6 mph - N/A   Clear
9:54 AM 48.9 °F - 28.9 °F 46% 29.75 in 10.0 mi SW 28.8 mph 36.8 mph N/A   Clear
10:54 AM 51.1 °F - 30.9 °F 46% 29.78 in 10.0 mi WSW 27.6 mph 38.0 mph N/A   Clear
11:54 AM 54.0 °F - 34.0 °F 47% 29.76 in 10.0 mi WSW 33.4 mph 42.6 mph N/A   Clear
12:54 PM 55.9 °F - 37.0 °F 49% 29.75 in 10.0 mi WSW 29.9 mph 38.0 mph N/A   Clear
1:54 PM 53.1 °F - 36.0 °F 52% 29.76 in 10.0 mi WSW 25.3 mph 33.4 mph N/A   Clear
2:54 PM 53.1 °F - 36.0 °F 52% 29.77 in 10.0 mi WSW 21.9 mph - N/A   Clear
3:54 PM 54.0 °F - 35.1 °F 49% 29.77 in 10.0 mi WSW 25.3 mph - N/A   Clear
4:54 PM 52.0 °F - 36.0 °F 54% 29.76 in 10.0 mi SW 19.6 mph - N/A   Clear
5:54 PM 52.0 °F - 36.0 °F 54% 29.79 in 10.0 mi SW 18.4 mph - N/A   Partly Cloudy
6:54 PM 48.9 °F - 36.0 °F 61% 29.81 in 10.0 mi SW 18.4 mph - N/A   Clear
7:54 PM 46.9 °F - 35.1 °F 63% 29.81 in 10.0 mi SW 18.4 mph - N/A   Clear
8:54 PM 46.9 °F - 34.0 °F 61% 29.82 in 10.0 mi SW 19.6 mph - N/A   Clear
9:54 PM 48.0 °F - 34.0 °F 58% 29.83 in 10.0 mi WSW 17.3 mph - N/A   Clear
10:54 PM 46.0 °F 39.3 °F 33.1 °F 61% 29.83 in 10.0 mi WSW 16.1 mph - N/A   Mostly Cloudy
11:54 PM 45.0 °F 39.3 °F 34.0 °F 65% 29.82 in 10.0 mi WSW 11.5 mph - N/A   Overcast
12:54 AM 43.0 °F 37.2 °F 34.0 °F 71% 29.82 in 10.0 mi West 10.4 mph - N/A   Overcast